Notices

What's New in latest Release from April 7th, 2021:

- Updated Glossary, including Speed of Maximum Gust, and Total Hourly Precipitation

- Updated national and regional climate services offices contacts and prices information

- Addition of station inventory lists for 1981-2010, 1971-2000, and 1961-1990 Normals.

If you haven't already, please take our survey and provide feedback about our website: https://eccc.sondage-survey.ca/f/LanguageSelection.aspx?s=442ca660-fcf1-47c0-95a9-59707d6fd709

Hourly Data Report for June 03, 2004

SHERBROOKE A
QUEBEC

45°26'00.000" N
71°41'00.000" W
241.40 m
7028124
71610
YSC

Download Data

Hourly Data (June 2004)
Hourly Data Report for June 3, 2004
TIME
LST
Temp Definition
°C
Dew Point Definition
°C
Rel Hum Definition
%
Precip. Amount Definition
mm

Wind Dir Definition
10's deg

Wind Spd Definition
km/h
Visibility Definition
km
Stn Press Definition
kPa
Hmdx Definition


Wind Chill Definition


Weather Definition


00:00 5.0 4.2 95     0 3.2 98.30      
01:00 3.6 2.4 92   25 4 15.0 98.30      
02:00 3.8 2.8 93     0 15.0 98.30      
03:00 3.6 2.9 95     0 15.0 98.32      
04:00 3.0 2.2 94     0 15.0 98.35      
05:00 3.3 2.4 94     0 15.0 98.39      
06:00 7.2 6.5 95   25 4 15.0 98.44      
07:00 10.0 7.3 83   27 7 24.1 98.47     Mainly Clear
08:00 11.3 7.2 76   26 13 24.1 98.48     Mainly Clear
09:00 11.4 6.0 69   28 19 24.1 98.49     Mainly Clear
10:00 13.2 6.4 63   29 19 24.1 98.47     Mainly Clear
11:00 14.6 7.1 61   29 20 24.1 98.45     Mostly Cloudy
12:00 14.2 6.1 58   31 19 24.1 98.43     Mostly Cloudy
13:00 14.9 6.5 57   31 26 24.1 98.43     Mostly Cloudy
14:00 14.4 6.8 60   33 15 24.1 98.42     Mostly Cloudy
15:00 14.2 8.0 66   31 9 24.1 98.48     Mostly Cloudy
16:00 12.7 9.5 81   32 11 24.1 98.52     Mostly Cloudy
17:00 11.6 7.6 76   36 9 15.0 98.54     Rain
18:00 12.3 6.8 69   32 9 15.0 98.62      
19:00 10.9 6.8 76   28 11 15.0 98.71      
20:00 9.1 6.5 84   30 9 15.0 98.81      
21:00 6.0 4.5 90     0 15.0 98.89      
22:00 5.0 3.7 91   27 4 15.0 98.96      
23:00 5.3 4.0 91   27 7 15.0 99.02      

Notes on Data Quality.

Legend

  • E = Estimated
  • M = Missing
  • NA = Not Available*
  • [empty] = Indicates an unobserved value
Date modified: